Please be sure to check the latest weather conditions by clicking the link and viewing our local weather information!

Check Weather

Welcome to Lakeway Airpark (3R9)

FromTheAir

We’re a community airpark nestled within the town of Lakeway, Texas (17 miles northwest of downtown Austin).

Lakeway Airpark, Inc. was formed by Lakeway residents and interested parties to own and manage Lakeway Airpark (3R9).

The Airpark is a privately owned not for profit public use airport for residents and guests of Lakeway. No public funds are used and the airport is supported by fees and fuel sales at the airport.

Lakeway Airpark is an unmanned facility open for use from Sunrise to Sunset seven days a week. Takeoffs and landings are not permitted at night, between Sunset and Sunrise, by City Ordinance.

Quick Weather Info

Available data for KAUS from the past 2 hours

metar

  • KAUS 281453Z 00000KT 10SM FEW200 24/18 A3010 RMK AO2 SLP184 T02390178 53018
  • KAUS 281353Z 00000KT 10SM FEW095 FEW200 21/18 A3008 RMK AO2 SLP181 T02110183

taf

  • KAUS 281132Z 2812/2918 34005KT P6SM SCT200